Location: Shenandoah County Park
(38.9356°N, 78.4524°W)
Time: 13:41:29
(UTC-05:00)

Vanguard 2 Rocket - Pass Details

Date: 02 December 2023
Orbit: 555 x 3309 km, 32.9° (Epoch: 02 March)

Event Time Altitude Azimuth Distance (km) Brightness Sun altitude
Rises 22:17:10 0° 282° (WNW) 6,927 11.8 -61.7°
Reaches altitude 10° 22:23:32 10° 271° (W) 5,524 11.1 -62.8°
Enters shadow 22:30:08 20° 249° (WSW) 4,208 10.3 -63.9°
Maximum altitude 22:34:16 23° 227° (SW) 3,648 - -64.6°
Drops below altitude 10° 22:41:55 10° 180° (S) 3,788 - -65.8°
Sets 22:45:17 0° 165° (SSE) 4,372 - -66.3°
